Location: Unspecified
(0.0000°N, 0.0000°E)
Time: 15:10:42
(UTC+00:00)

Altair - Pass Details

Date: 30 October 2021
Orbit: 1502 x 1682 km, 47.2° (Epoch: 26 November)

Event Time Altitude Azimuth Distance (km) Brightness Sun altitude
Rises 08:38:09 0° 337° (NNW) 4,835 9.8 42.0°
Reaches altitude 10° 08:41:35 10° 345° (NNW) 3,872 9.5 42.9°
Maximum altitude 08:50:36 38° 50° (NE) 2,351 9.3 45.0°
Drops below altitude 10° 08:59:43 10° 114° (ESE) 3,942 10.6 47.1°
Sets 09:03:12 0° 122° (ESE) 4,930 10.8 47.9°
